KE0RUZ Weather Reports


time (UTC)temp
C
wind
direction
speed
KPH
gust
KPH
rain 1hr
cm
rain 24hr
cm
rain mn
cm
humidity
%
barometer
mb
20260505124600 12 115 4.8 14.5 0.00 0.81 0.81 88 1008.6
20260505123105 12 103 1.6 11.3 0.00 0.81 0.81 89 1008.5
20260505122040 12 22 3.2 11.3 0.00 0.81 0.81 90 1007.7
20260505120053 12 68 1.6 8.0 0.00 0.81 0.81 90 1007.8
20260505114544 12 99 1.6 8.0 0.00 0.81 0.81 90 1007.6
20260505113100 13 34 1.6 9.7 0.00 0.81 0.81 89 1007.3
20260505111549 13 49 1.6 9.7 0.00 0.81 0.81 88 1007.3
20260505101555 16 0 0.0 6.4 0.00 0.81 0.81 91 1007.3
20260505100040 16 20 1.6 6.4 0.00 0.81 0.81 91 1007.9
20260505094558 16 16 3.2 11.3 0.00 0.81 0.81 91 1007.5
20260505093053 16 53 4.8 17.7 0.00 0.81 0.81 92 1006.3
20260505091544 16 21 3.2 6.4 0.00 0.81 0.81 93 1007.3
20260505090044 16 250 1.6 11.3 0.00 0.81 0.81 92 1006.5
20260505084540 16 0 0.0 12.9 0.00 0.81 0.81 92 1005.9
20260505083045 16 149 6.4 19.3 0.00 0.81 0.81 92 1005.1
20260505081547 16 190 11.3 27.4 0.08 0.81 0.81 93 1004.9
20260505080050 16 128 12.9 30.6 0.33 0.81 0.81 93 1004.5
20260505074543 16 210 6.4 22.5 0.48 0.81 0.81 94 1005.9
20260505073054 16 153 4.8 11.3 0.64 0.81 0.81 93 1006.9
20260505071539 16 227 6.4 16.1 0.69 0.74 0.74 93 1008.3
20260505070058 16 229 8.0 19.3 0.48 0.48 0.48 91 1008.7
20260505064553 17 234 6.4 25.7 0.33 0.33 0.33 88 1008.6
20260505063046 17 219 3.2 20.9 0.18 0.18 0.18 84 1008.2
20260505061611 18 233 14.5 30.6 0.05 0.05 0.05 79 1007.2
20260505060053 18 0 3.2 8.0 0.00 0.00 0.00 76 1006.4
20260505054555 18 121 6.4 12.9 0.00 0.00 0.00 75 1006.4
20260505053048 19 93 4.8 9.7 0.00 0.00 0.00 74 1006.4
20260505051544 19 219 3.2 11.3 0.00 0.00 0.00 73 1006.7
20260505041550 19 142 1.6 8.0 0.00 0.00 0.00 73 1006.8
20260505040059 20 157 1.6 8.0 0.00 0.00 0.00 72 1007.0
20260505034544 20 167 3.2 12.9 0.00 0.00 0.00 71 1007.1
20260505033041 20 243 6.4 12.9 0.00 0.00 0.00 70 1007.0
20260505031548 20 199 4.8 12.9 0.00 0.00 0.00 71 1007.2
20260505030048 20 185 4.8 9.7 0.00 0.00 0.00 71 1007.1
20260505024544 20 138 3.2 6.4 0.00 0.00 0.00 70 1007.2
20260505023044 20 112 1.6 8.0 0.00 0.00 0.00 69 1007.2
20260505021540 21 210 3.2 12.9 0.00 0.00 0.00 68 1007.2
20260505020043 21 206 0.0 3.2 0.00 0.00 0.00 67 1007.0
20260505014546 21 139 1.6 8.0 0.00 0.00 0.00 65 1006.9
20260505013045 22 238 4.8 19.3 0.00 0.00 0.00 64 1006.7
20260505011547 22 245 8.0 17.7 0.00 0.00 0.00 63 1006.7
20260505004542 23 258 6.4 11.3 0.00 0.00 0.00 62 1006.2
20260505003044 23 268 6.4 17.7 0.00 0.00 0.00 61 1006.1
20260505001552 23 195 4.8 19.3 0.00 0.00 0.00 60 1006.0
20260505000055 23 264 6.4 19.3 0.00 0.00 0.00 59 1006.0
20260504234543 23 236 4.8 14.5 0.00 0.00 0.00 59 1006.0
20260504233050 24 177 6.4 20.9 0.00 0.00 0.00 58 1006.0
20260504231551 25 224 9.7 25.7 0.00 0.00 0.00 57 1006.1
20260504230052 25 230 6.4 25.7 0.00 0.00 0.00 56 1005.9
20260504224544 25 261 8.0 25.7 0.00 0.00 0.00 55 1005.8
20260504223043 26 237 9.7 22.5 0.00 0.00 0.00 54 1005.7
20260504221542 26 233 8.0 22.5 0.00 0.00 0.00 54 1005.8
20260504220048 26 253 11.3 29.0 0.00 0.00 0.00 54 1005.7
20260504214548 26 247 12.9 29.0 0.00 0.00 0.00 53 1005.7
20260504213104 26 247 14.5 30.6 0.00 0.00 0.00 54 1005.9
20260504211546 26 252 12.9 25.7 0.00 0.00 0.00 54 1006.0
20260504210043 26 213 8.0 22.5 0.00 0.00 0.00 55 1006.0
20260504204550 26 281 11.3 25.7 0.00 0.00 0.00 54 1006.4
20260504203050 26 282 11.3 25.7 0.00 0.00 0.00 52 1006.6
20260504201549 26 245 12.9 25.7 0.00 0.00 0.00 54 1006.7
20260504200046 26 266 12.9 25.7 0.00 0.00 0.00 53 1006.9
20260504194543 26 293 8.0 22.5 0.00 0.00 0.00 54 1007.1
20260504193054 26 238 12.9 33.8 0.00 0.00 0.00 54 1007.3
20260504191538 26 248 12.9 24.1 0.00 0.00 0.00 54 1007.5
20260504190040 25 300 12.9 32.2 0.00 0.00 0.00 53 1007.5
20260504184540 25 238 9.7 29.0 0.00 0.00 0.00 55 1007.5
20260504183055 25 288 9.7 27.4 0.00 0.00 0.00 53 1007.4
20260504181545 25 243 12.9 32.2 0.00 0.00 0.00 55 1007.5
20260504180122 25 214 14.5 25.7 0.00 0.00 0.00 53 1007.5
20260504174549 25 245 12.9 27.4 0.00 0.00 0.00 54 1007.5
20260504173048 25 259 12.9 25.7 0.00 0.00 0.00 56 1007.5
20260504171550 24 257 11.3 29.0 0.00 0.00 0.00 57 1007.6